Regional Weather Roundup
Issued by NWS Wakefield, VA

Current Version | Previous Version | Text Only | Print | Product List | Glossary On
Versions: 1 2 3 4 5 6 7 8 9 10 11 12 13 14 15 16 17 18 19 20 21 22 23 24 25 26 27
000
ASUS41 KAKQ 180715
RWRAKQ

REGIONAL WEATHER ROUNDUP
NATIONAL WEATHER SERVICE WAKEFIELD VA
200 AM EST MON DEC 18 2017

Note: "fair" indicates few or no clouds below 12,000 feet with no
significant weather and/or obstructions to visibility. * = Denotes
station may not report precipitation (e.g., rain,snow,etc.),
thunder or fog.

VAZ042-051-052>054-056-180800-
NORTHERN VIRGINIA

CITY           SKY/WX    TMP DP  RH WIND       PRES   REMARKS
WASH NATIONAL  CLOUDY    42  35  76 S3        30.13F
DULLES         CLOUDY    39  35  86 CALM      30.12F
FORT BELVOIR   CLOUDY    39  36  89 CALM      30.12F
QUANTICO       CLOUDY    41  38  89 CALM      30.13F
FREDERICKSBRG* CLOUDY    42  36  79 CALM      30.12S
STAFFORD*      CLOUDY    40  40 100 CALM      30.15F
WARRENTON      CLOUDY    38  34  83 CALM      30.11S
CULPEPER*      CLOUDY    36  34  92 CALM      30.13R
MANASSAS*      CLOUDY    38  36  92 NW3       30.12F
LEESBURG*      CLOUDY    41  37  87 N3        30.13R
WINCHESTER     CLOUDY    37  32  81 CALM      30.10S
FRONT ROYAL*   CLOUDY    41  34  75 CALM      30.09S
LURAY*         CLOUDY    37  37 100 CALM      30.10R
$$

VAZ048-049-060>072-079>083-180800-
CENTRAL AND SOUTH CENTRAL VIRGINIA

CITY           SKY/WX    TMP DP  RH WIND       PRES   REMARKS
RICHMOND       CLOUDY    41  37  86 S3        30.13F
CHESTERFIELD*  NOT AVBL
PETERSBURG*    CLOUDY    39  36  87 CALM      30.15F
HANOVER        CLOUDY    43  36  76 S3        30.14F
TAPPAHANNOCK*  CLOUDY    43  36  75 CALM      30.14F
QUINTON*       CLOUDY    40  38  91 S6        30.14F
CHARLOTTSVILLE CLOUDY    42  34  73 SW5       30.10S
GORDONSVILLE*  CLOUDY    35  34  96 CALM      30.10F
ORANGE*        CLOUDY    36  32  87 CALM      30.10F
LOUISA*        CLOUDY    41  33  75 CALM      30.16S
BUMPASS*       CLOUDY    39  34  81 CALM      30.12S
FARMVILLE*     CLOUDY    40  40 100 CALM      30.11F
CREWE*         CLOUDY    37  37 100 CALM      30.13F
FORT PICKETT*  NOT AVBL
CHASE CITY*    CLOUDY    42  40  89 CALM      30.14F
CLARKSVILLE*   CLOUDY    41  39  93 CALM      30.16S
SOUTH HILL*    CLOUDY    41  39  93 S6        30.20F
LAWRENCEVILLE* CLOUDY    40  37  89 CALM      30.15S
EMPORIA*       CLOUDY    34  34 100 CALM      30.17S FOG
$$

VAZ088>098-180800-
SOUTHEAST VIRGINIA

CITY           SKY/WX    TMP DP  RH WIND       PRES   REMARKS
NORFOLK        MOCLDY    40  33  76 S7        30.16R
VIRGINIA BEACH CLOUDY    44  33  65 SW6       30.16R
NORFOLK NAVAL  MOCLDY    47  36  65 SW7       30.17S
WEST POINT*    CLOUDY   N/A N/A N/A CALM      30.16F
SALUDA*        CLOUDY    43  36  76 CALM      30.15R
NEWPORT NEWS   CLOUDY    46  36  68 SW6       30.16S
LANGLEY AFB    CLOUDY    46  36  69 SW5       30.15S
FORT EUSTIS    CLOUDY    45  36  72 SW3       30.13S
WILLIAMSBURG*  CLOUDY    45  39  81 CALM      30.16S
HR EXEC AP*    PTSUNNY   37  35  92 CALM      30.17S
FRANKLIN*      CLOUDY    42  35  76 CALM      30.17R
US460-WAKEFLD  CLOUDY    44  38  79 SW3       30.16S
$$

VAZ020-022-025-037-045-180800-
WEST CENTRAL AND SOUTHWEST VIRGINIA

CITY           SKY/WX    TMP DP  RH WIND       PRES   REMARKS
STAUNTON*      CLOUDY    37  31  80 CALM      30.11S
WAYNESBORO*    CLOUDY    33  31  91 CALM      30.09S
HOT SPRINGS VA SNOW      34  34 100 W16       30.04S VSB<1/4 WCI  24
LYNCHBURG      CLOUDY    38  34  85 SW3       30.12F
DANVILLE       CLOUDY    40  37  89 CALM      30.15F
SOUTH BOSTON*  CLOUDY    40  39  95 CALM      30.15F
MARTINSVILLE   CLOUDY    36  33  90 CALM      30.17S
ROANOKE        MOCLDY    41  35  79 CALM      30.14S
BLACKSBURG     CLOUDY    39  33  80 CALM      30.14S
DUBLIN*        CLOUDY    41  34  76 SW3       30.13S
MARION*        FOG       39  36  91 SW9       30.15R VSB 1/2
HILLSVILLE*    CLOUDY    39  34  80 CALM      30.10S
RICHLANDS*     CLOUDY    38  36  92 W3        30.12S
WISE*          FOG       37  37 100 SW5       30.13R VSB 1/2
ABINGDON*      CLOUDY    39  39 100 CALM      30.15S FOG
$$

MDZ021>025-VAZ099-100-180800-
SOUTHERN MARYLAND AND THE DELMARVA PENINSULA

CITY           SKY/WX    TMP DP  RH WIND       PRES   REMARKS
PATUXENT RIVER CLOUDY    42  36  79 CALM      30.14R
BAY BRIDGE APT CLOUDY    41  36  81 CALM      30.14S
LEONARDTOWN    CLOUDY    41  34  75 CALM      30.14F
DOVER          CLOUDY    39  39 100 S3        30.13F
GEORGETOWN     CLOUDY    40  37  89 CALM      30.14F
EASTON         CLOUDY    42  36  80 CALM      30.17S
CAMBRIDGE      CLOUDY    41  37  87 CALM      30.14S
SALISBURY      CLOUDY    42  39  89 CALM      30.14S
OCEAN CITY     CLOUDY    44  39  82 CALM      30.15S
WALLOPS ISLAND CLOUDY    44  36  73 SW3       30.15S
ACCOMACK*      CLOUDY    46  37  69 W6        30.15S
$$

NCZ012>017-030>032-180800-
NORTH CENTRAL AND EASTERN NORTH CAROLINA

CITY           SKY/WX    TMP DP  RH WIND       PRES   REMARKS
ROANOKE RAPIDS CLOUDY    39  39 100 SW6       30.17S
RALEIGH        MOCLDY    45  39  79 SW6       30.16F
ELIZABETH CITY CLOUDY    45  42  89 SW6       30.17S
AHOSKIE*       CLOUDY    38  38 100 CALM      30.17S FOG
EDENTON*       CLOUDY    46  42  84 CALM      30.18S
CURRITUCK*     CLOUDY    46  38  75 SW3       30.18R
KILL DEVIL HLS CLOUDY    47  38  72 CALM      30.17R
MANTEO         CLOUDY    46  41  83 W3        30.18S
CAPE HATTERAS  CLOUDY    49  47  93 VRB3      30.19R
TARBORO*       NOT AVBL
GOLDSBORO      CLOUDY    50  40  68 CALM      30.16R
WASHINGTON     CLOUDY    46  43  87 CALM      30.19R
GREENVILLE     CLOUDY    48  37  66 CALM      30.19S
NEW BERN       CLOUDY    50  47  89 S3        30.18F
WILMINGTON     CLOUDY    53  49  86 CALM      30.19F
$$

VAZ048-180800-
ELSEWHERE

CITY           SKY/WX    TMP DP  RH WIND       PRES   REMARKS
HARRISBURG PA  CLOUDY    35  29  78 CALM      30.13F
BALTIMORE      CLOUDY    39  34  82 E3        30.12F
ANNAPOLIS      CLOUDY    41  39  93 CALM      30.12F
ANDREWS AFB    CLOUDY    40  35  84 CALM      30.10F
PHILADELPHIA   CLOUDY    38  32  79 NE7       30.15F
HENDERSON NC   PTCLDY    35  33  94 SW5       30.16S
GREENSBORO     CLOUDY    39  36  89 NW3       30.15R
ROCKY MOUNT    CLOUDY    46  44  93 CALM      30.18S
$$

VAZ100-180800-
MARINE

STATION/POSITION TIME  TEMP    WIND        PRES    WAVE   SWELL
                       AIR SEA DIR/SP/G            HT/PER HT/PER
                 (UTC) (F)     (DEG/KT/KT) (MB)    (FT/S) (FT/S)
BRANDYWINE LGT   0642          130/  6/  8 1020.7F
CAPE MAY NJ      0642      43  110/  4/  5 1020.0F
LEWES DE         0642      43  120/  2/  3 1020.4F
15NM E FENWICK I 0650   49 52  240/ 10/ 12 1021.1F   1/ 5   2/ 5
OCEAN-CITY-INLET 0642      45  280/  2/  2 1021.2R
WACHAPREAGUE VA  0642      41  250/  1/  1 1020.9S
THOMAS POINT MD  0700   42 43  110/  2/  3   N/A
GOOSES REEF MD   0700   44 44  280/  2/  2 1020.7    0
COVE POINT MD    0642           CALM  /  2 1020.9F
SOLOMONS ISLAND  0642      45  280/  1/  3 1020.1S
BISHOPS HEAD MD  0642      38  190/  2/  3 1020.9F
PINEY POINT MD   0642             CALM       N/A
POTOMAC MD       0700   44 45  290/  4/  4 1020.0    0
CAMBRIDGE MD     0642      39              1021.2F
LEWISETTA VA     0642      41  240/  6/  7 1020.4F
RAPPAHANNOCK LGT 0642          220/  5/  6 1021.5R
STINGRAY PT      0650   44     260/  2/  4 1021.1S
YORK RVR RNG VA  0642          270/  5/  6 1021.6R
YORKTOWN VA      0642      45  240/  6/  8 1020.7R
JAMESTOWN VA     0700      43     CALM       N/A     0
DOMINION TERM VA 0642          230/  5/  5 1021.5R
KIPTOPEKE VA     0642      45  290/  5/  6   N/A
CAPE HENRY VA    0642          220/  6/  8   N/A
WILLOUBY STN VA  0642          230/  6/  6 1021.0R
S CRANEY ISL VA  0642          230/  4/  8 1021.0R
CAPE HENRY BUOY  0700      50                N/A     1/10
1ST LANDING BUOY 0700   47 46  250/  6/  8 1021.3    0
CAPE CHARLES BUO 0651      49                N/A     1/11
64NM E OF VA BCH 0650   53 58  260/ 12/ 16 1021.9R   2/ 4
DUCK PIER NC     0642      52  240/  8/ 11 1021.2R
44100 DUCK FRF   0645      54                N/A     2/ 3
44056 DUCK FRF   0700      54                N/A     1/10
OREGON INLET NC  0642      45  230/  4/  5 1021.8R
HATTERAS NC      0642      52  340/  3/  4 1022.0R
DIAMOND SHLS NC  0650   58 72  310/ 10/ 14 1022.6R   2/10   2/10
CAPE LOOKOUT NC  0700          300/  2/  3 1022.7F
$$




USA.gov is the U.S. government's official web portal to all federal, state and local government web resources and services.